Wind_Speed
4 3 4 5 4 4 6 7 9 9 9 9 9 9 8 6 5 4 2 0 1 1 2 3 3 3 3 3 2 1 1 1 1 1 1 1 2 2 2 2 3 2 2 2 2 2 3 3 3
3 3 3 3 3 4 6 7 8 9 9 9 9 8 8 7 6 4 3 0 1 1 2 3 4 4 4 3 2 1 1 1 2 1 1 1 2 2 2 2 2 2 2 2 2 2 2 2 2
2 1 1 1 1 3 5 7 8 10 10 10 9 8 7 6 6 5 3 1 1 2 3 4 4 4 4 4 3 2 2 1 2 2 2 2 2 2 2 2 2 2 2 2 2 2 2 2 2
2 1 1 2 1 2 5 6 8 11 11 11 10 9 7 6 6 5 3 2 1 2 3 5 5 5 5 5 4 3 2 2 2 2 2 2 2 2 2 2 2 2 2 2 2 2 2 2 2
3 3 3 3 2 1 4 5 8 10 10 11 11 10 9 7 6 5 4 2 2 2 3 5 6 6 7 6 5 4 3 2 2 2 2 2 3 3 3 2 2 2 2 2 2 3 2 2 2
4 4 4 4 3 1 1 4 7 10 12 12 11 10 9 7 6 6 4 3 3 2 3 5 7 8 8 8 7 6 4 3 3 3 2 2 3 3 3 3 2 2 3 3 3 3 3 3 2
6 5 5 5 4 3 2 4 7 10 12 13 11 10 9 8 7 5 5 4 4 4 5 6 7 8 9 8 8 7 6 5 4 3 3 2 3 4 4 3 3 3 3 3 3 3 3 3 2
7 6 6 6 4 2 3 6 9 13 14 15 12 10 9 8 7 6 5 5 5 5 6 6 7 9 9 9 9 8 7 6 5 4 3 3 3 4 4 4 3 3 3 3 3 3 3 2 2
8 8 7 5 4 3 4 7 8 12 15 15 14 12 10 9 8 7 6 6 6 6 6 6 8 10 10 10 10 10 8 7 6 6 4 4 3 4 4 4 4 3 3 3 3 3 3 2 2
9 9 8 7 6 5 6 9 10 12 14 15 14 12 11 11 10 7 5 6 6 6 6 7 8 10 11 11 11 11 10 9 8 7 6 4 4 4 4 4 4 3 3 3 3 3 3 2 2
11 11 10 10 8 7 7 9 12 14 14 14 13 13 13 12 10 8 6 6 7 7 7 8 9 10 11 12 12 12 12 11 10 9 7 6 5 4 4 4 3 3 2 2 2 3 3 3 2
13 13 13 12 11 10 10 11 13 14 13 15 15 13 13 12 11 9 7 7 8 7 7 8 9 10 11 12 12 13 12 12 11 10 9 8 6 5 5 4 4 4 3 2 3 3 2 3 2
14 15 14 13 12 12 12 12 13 14 14 14 14 14 14 12 10 9 8 7 7 7 8 9 8 9 10 11 12 13 14 13 12 11 11 10 8 7 6 5 4 4 4 3 2 2 2 3 2
15 15 15 14 14 14 13 13 14 14 14 14 14 15 15 13 10 9 8 8 7 6 8 9 9 10 11 11 12 14 14 14 13 12 12 11 10 8 7 6 5 5 4 3 3 3 3 3 2
16 15 14 14 14 14 14 13 13 14 14 15 15 15 14 11 10 10 9 8 7 6 7 8 10 10 12 12 12 13 15 15 14 13 13 13 11 10 8 7 6 5 5 4 3 3 3 2 1
15 14 13 13 12 13 14 12 12 13 13 14 14 15 13 11 10 10 10 10 8 7 8 9 10 11 12 12 12 13 15 15 15 14 15 14 13 11 10 9 7 6 6 5 4 3 3 2 1
15 14 13 13 11 12 14 13 12 11 12 13 15 15 13 11 12 11 11 10 9 8 8 9 10 11 11 12 12 12 13 15 15 15 15 16 14 13 11 9 8 8 7 6 5 4 4 2 2
16 16 15 13 11 12 13 12 12 12 13 14 15 14 14 13 11 11 10 10 9 9 9 9 10 12 12 13 13 13 13 14 15 15 16 16 16 14 12 11 10 9 8 7 6 5 5 4 3
18 18 16 13 13 13 12 12 12 14 14 14 14 14 15 12 11 11 10 9 10 10 10 10 11 12 12 13 13 13 13 13 14 16 16 17 17 15 14 13 12 10 9 8 7 6 5 5 4
19 18 15 14 13 14 13 13 12 14 13 14 15 15 14 12 11 12 11 10 10 11 11 12 13 13 13 14 15 14 14 14 14 16 17 17 17 16 15 14 13 12 11 9 8 7 7 6 5
19 17 16 14 14 14 14 13 12 13 14 14 14 14 13 12 11 11 11 11 11 12 12 11 12 13 14 15 15 14 14 14 15 15 16 17 17 17 16 16 14 13 12 11 10 9 8 7 6
18 16 15 15 15 14 15 15 13 13 13 14 14 13 12 12 12 11 10 11 11 11 11 11 12 12 14 14 15 15 15 16 16 17 18 18 18 17 17 16 16 15 14 13 11 10 9 8 7
17 16 15 16 16 16 16 17 15 15 14 15 13 12 11 12 11 11 11 10 11 11 10 11 11 12 13 14 15 15 15 16 18 19 19 19 18 18 17 16 16 16 15 14 13 12 11 10 9
17 17 17 18 18 17 17 18 16 16 15 15 13 11 11 10 10 9 9 10 10 9 9 10 11 11 12 13 14 15 16 16 17 19 19 19 19 18 18 17 17 17 17 16 15 14 13 12 11
18 18 19 19 18 16 16 18 15 15 14 15 13 10 9 10 10 8 9 10 9 9 8 9 10 11 12 12 13 15 16 16 17 19 20 20 19 19 18 18 18 18 18 18 17 15 14 14 13
18 18 18 18 17 15 15 16 15 15 14 13 12 10 9 9 8 8 9 9 9 8 8 8 9 10 11 11 12 13 15 16 17 18 20 22 21 20 19 19 20 20 20 19 18 17 16 16 16
16 17 17 18 18 16 15 14 13 13 14 14 12 10 9 9 8 8 8 9 8 8 8 8 8 8 9 9 10 11 13 15 16 16 18 21 22 21 20 20 21 20 20 20 19 19 18 17 17
15 16 18 19 19 18 16 15 14 15 14 11 11 10 9 9 8 8 9 9 8 8 8 7 7 7 9 10 10 12 13 14 15 16 18 20 22 22 21 21 21 21 21 20 20 20 20 19 19
17 18 19 19 19 19 18 17 16 16 15 12 10 10 9 9 8 9 9 9 9 9 9 8 7 7 8 8 10 11 12 14 15 16 18 20 21 22 22 21 21 21 22 22 22 22 22 21 20
19 18 20 21 20 20 21 20 18 17 16 14 12 10 9 10 10 9 9 9 9 9 10 9 8 8 8 8 8 10 12 14 15 16 17 20 21 22 22 22 22 22 23 23 24 24 24 23 22
Wind_Direction
44 52 66 74 65 50 40 37 31 15 13 12 7 4 9 12 5 358 347 346 225 218 210 198 184 177 167 156 144 126 355 345 339 346 346 355 11 15 21 26 31 36 42 44 46 55 64 71 76
30 46 70 80 72 45 30 24 12 10 8 5 4 4 14 23 13 358 352 67 211 225 228 205 198 198 189 183 177 188 308 321 318 321 317 334 349 354 360 9 16 28 33 31 33 44 57 67 76
353 36 95 116 93 35 39 26 10 1 358 356 358 2 9 15 9 358 3 0 259 234 223 214 206 204 204 204 206 218 252 288 294 298 294 308 324 337 350 356 2 16 22 26 33 40 49 57 67
306 306 233 226 215 44 46 33 352 347 343 343 353 359 3 8 6 1 2 351 293 229 221 221 219 217 216 216 215 221 238 254 271 282 286 297 311 318 329 339 346 4 12 14 25 34 35 36 36
292 283 255 241 247 357 36 13 348 339 334 337 345 350 355 9 8 2 2 343 296 240 236 233 226 223 222 224 221 219 227 230 246 267 282 291 301 305 311 324 333 346 358 3 15 25 22 19 19
274 279 272 254 242 252 359 356 334 333 332 335 340 346 355 1 359 351 346 333 303 270 252 243 230 224 224 226 224 221 224 226 238 251 274 287 301 306 309 318 323 333 347 356 4 9 9 9 8
269 267 260 251 242 224 275 311 315 324 326 330 338 345 352 354 350 349 339 331 320 285 269 247 233 228 227 227 226 222 221 226 234 245 258 279 302 305 304 309 308 320 336 344 350 1 8 10 19
267 262 251 254 245 235 284 304 317 322 324 326 339 344 348 347 340 338 335 327 316 291 270 260 235 228 231 230 227 224 221 224 230 237 248 275 297 302 300 299 301 311 324 334 344 355 3 2 6
261 252 249 240 238 249 272 297 309 310 315 319 328 337 336 335 331 328 325 319 314 294 280 261 237 229 230 231 228 225 224 225 227 234 245 260 277 291 293 292 294 302 314 322 335 348 3 9 9
252 243 244 241 252 258 270 290 295 302 307 312 320 329 325 323 325 325 321 311 306 294 275 258 240 231 229 230 232 229 227 227 229 234 239 248 264 277 282 288 287 293 305 313 324 342 352 5 17
246 237 241 245 251 262 274 284 291 295 297 308 313 318 316 315 317 319 316 301 299 291 272 256 242 235 231 230 232 233 230 230 232 234 239 246 254 262 273 283 276 272 286 300 321 332 352 8 7
243 239 240 241 250 259 265 274 283 291 298 304 311 310 312 313 311 312 310 301 296 287 271 257 240 236 233 231 233 233 229 232 233 234 239 241 245 252 262 263 261 261 267 276 301 317 345 2 354
245 242 239 241 246 252 257 264 272 283 295 303 308 303 308 312 307 304 309 308 296 280 270 255 244 243 237 235 236 232 230 235 234 233 235 237 239 244 250 246 244 249 251 260 289 312 325 337 340
243 240 240 241 243 244 251 258 266 279 291 298 303 302 303 306 303 302 305 306 306 284 264 246 245 244 237 237 238 234 231 234 235 233 232 234 234 237 243 237 236 234 232 244 269 295 309 319 323
244 241 241 241 241 239 247 252 265 277 287 294 299 301 301 305 300 301 304 312 304 283 262 254 247 239 236 237 240 237 231 231 233 231 230 232 233 234 236 234 230 223 222 232 248 269 289 301 305
243 239 234 232 235 238 244 250 260 273 285 296 300 305 305 302 304 305 301 307 299 283 270 258 249 240 239 239 241 241 232 232 230 228 228 230 231 232 231 229 226 221 220 223 230 239 251 269 259
238 232 223 224 233 243 247 251 258 273 283 294 300 305 307 301 309 312 309 303 295 287 276 263 246 241 241 240 239 240 233 231 230 229 227 227 228 227 225 223 220 217 217 218 222 223 232 242 224
232 223 220 224 230 244 253 256 259 275 283 288 295 305 307 304 307 308 307 301 295 287 280 261 247 250 249 244 241 244 235 234 233 230 227 225 223 221 221 220 218 215 216 218 220 224 226 219 211
230 228 227 230 239 244 246 250 256 271 282 286 292 301 306 305 312 308 304 293 286 285 281 263 253 253 253 247 245 240 234 232 231 229 225 223 221 221 218 219 218 218 219 218 218 217 211 211 209
234 233 230 231 237 246 248 257 262 264 273 284 289 293 304 306 309 307 300 289 282 285 280 266 255 253 252 249 244 239 232 229 229 228 225 223 221 218 215 215 217 220 221 218 217 215 213 215 212
233 235 231 231 237 246 254 261 262 264 267 283 289 292 300 306 305 303 296 290 286 281 277 265 254 251 251 249 242 241 236 232 227 227 223 220 218 217 216 216 216 220 220 217 216 217 213 216 214
233 235 232 237 242 245 254 258 254 256 269 280 286 292 299 302 302 300 296 288 285 280 274 264 256 250 249 246 241 243 236 231 228 221 219 221 219 217 217 216 217 219 219 217 219 215 214 216 216
231 232 231 237 244 245 249 256 253 257 267 278 284 288 295 299 299 295 296 291 286 279 268 261 259 254 250 244 241 239 233 227 223 219 219 220 218 218 218 218 218 220 222 220 220 218 220 220 220
226 228 232 235 241 245 249 258 257 259 262 272 275 280 289 290 297 298 300 299 291 278 265 259 258 257 251 245 240 233 228 224 222 221 218 217 218 219 218 219 220 221 221 221 221 222 224 226 227
224 227 232 234 239 243 250 256 262 258 263 269 269 272 282 288 295 304 301 297 292 278 267 262 263 256 250 245 239 233 229 227 224 221 220 219 219 220 221 222 221 221 222 221 223 225 227 230 233
223 229 234 238 240 241 250 259 264 262 270 269 264 263 269 281 297 302 300 298 292 276 263 263 268 261 255 249 238 233 230 227 223 222 221 221 220 222 223 222 222 221 223 223 226 229 231 233 238
223 230 238 242 242 246 254 260 271 270 276 272 264 255 259 272 285 296 298 296 288 272 266 267 268 262 253 246 237 229 228 224 221 221 219 219 221 222 223 224 223 223 224 226 229 232 235 237 240
225 231 236 240 243 248 253 261 272 280 289 282 268 258 259 271 280 288 292 287 283 269 266 266 262 260 255 247 239 231 227 219 220 221 218 217 219 220 223 226 227 226 226 228 230 234 237 241 243
225 231 236 240 244 251 255 258 264 278 281 281 281 277 270 270 276 279 281 278 276 268 265 265 264 261 255 245 238 230 224 221 221 222 221 220 219 220 224 226 229 229 228 231 234 236 239 242 246
230 236 240 242 246 252 258 263 267 277 279 282 285 283 284 284 282 276 282 284 276 270 264 261 262 262 256 246 240 234 229 224 224 224 221 219 221 224 227 229 231 233 233 235 238 241 242 243 247
Height
5895 5894 5894 5894 5894 5893 5891 5891 5889 5889 5888 5888 5888 5887 5888 5888 5889 5890 5888 5886 5887 5887 5887 5888 5889 5889 5890 5891 5892 5893 5893 5894 5894 5894 5894 5894 5894 5894 5893 5893 5892 5891 5891 5891 5890 5890 5890 5890 5890
5895 5894 5895 5895 5894 5892 5892 5890 5890 5890 5888 5889 5888 5888 5888 5888 5887 5887 5886 5886 5886 5887 5887 5888 5889 5890 5891 5891 5892 5893 5894 5894 5895 5895 5895 5895 5895 5894 5894 5893 5893 5892 5892 5892 5891 5891 5891 5891 5890
5895 5894 5895 5894 5893 5892 5891 5890 5890 5890 5889 5889 5889 5889 5888 5888 5887 5886 5885 5886 5886 5887 5887 5888 5889 5890 5891 5892 5892 5893 5894 5894 5895 5895 5895 5895 5895 5895 5895 5894 5893 5893 5893 5892 5892 5891 5891 5891 5891
5894 5894 5895 5894 5891 5891 5890 5890 5891 5890 5889 5888 5888 5888 5888 5888 5886 5885 5885 5885 5885 5886 5887 5888 5889 5890 5891 5891 5892 5893 5894 5894 5895 5896 5896 5896 5896 5896 5895 5895 5894 5894 5893 5893 5892 5892 5891 5891 5891
5894 5894 5894 5892 5891 5890 5889 5889 5890 5890 5888 5888 5888 5887 5887 5887 5886 5885 5884 5884 5884 5885 5886 5887 5888 5889 5890 5891 5892 5893 5894 5894 5895 5896 5896 5896 5896 5896 5896 5895 5895 5894 5894 5893 5893 5892 5892 5892 5892
5893 5893 5893 5892 5890 5890 5888 5888 5889 5889 5888 5888 5888 5887 5887 5886 5885 5884 5884 5884 5883 5883 5885 5886 5887 5888 5889 5890 5891 5892 5893 5894 5895 5896 5896 5897 5897 5896 5896 5896 5895 5895 5894 5893 5893 5893 5893 5892 5892
5892 5892 5891 5891 5889 5888 5888 5887 5887 5887 5887 5888 5887 5886 5886 5886 5885 5884 5882 5882 5882 5883 5883 5885 5886 5887 5888 5889 5891 5892 5893 5894 5895 5896 5896 5896 5897 5897 5896 5896 5895 5895 5894 5894 5893 5893 5893 5893 5892
5891 5891 5890 5889 5888 5888 5888 5887 5885 5886 5886 5886 5886 5885 5885 5885 5884 5883 5881 5881 5881 5881 5882 5883 5884 5885 5887 5888 5890 5891 5892 5893 5894 5895 5896 5896 5896 5897 5896 5896 5895 5895 5895 5894 5894 5893 5893 5893 5892
5889 5891 5889 5888 5887 5886 5886 5886 5885 5886 5885 5885 5884 5884 5883 5883 5883 5882 5881 5880 5880 5880 5880 5881 5882 5884 5885 5887 5888 5890 5891 5892 5893 5894 5895 5895 5896 5896 5896 5896 5895 5895 5895 5894 5894 5893 5893 5893 5892
5887 5888 5887 5886 5885 5885 5885 5885 5884 5884 5884 5884 5883 5882 5881 5881 5881 5881 5880 5879 5879 5878 5878 5879 5880 5882 5883 5885 5886 5888 5890 5891 5892 5893 5894 5895 5895 5895 5895 5895 5895 5894 5894 5894 5893 5893 5893 5893 5893
5885 5885 5885 5884 5883 5883 5883 5884 5883 5883 5883 5883 5882 5881 5879 5878 5878 5878 5878 5877 5877 5876 5877 5877 5878 5880 5881 5883 5884 5886 5888 5889 5891 5892 5893 5893 5894 5894 5894 5894 5894 5894 5894 5894 5893 5893 5893 5893 5892
5882 5882 5882 5882 5881 5881 5882 5882 5882 5881 5882 5881 5880 5879 5878 5876 5875 5875 5875 5875 5874 5874 5874 5875 5875 5877 5879 5880 5882 5884 5885 5887 5889 5890 5891 5892 5892 5893 5893 5893 5893 5893 5893 5894 5893 5893 5893 5893 5892
5879 5879 5879 5879 5879 5879 5880 5880 5880 5879 5879 5878 5877 5876 5876 5875 5873 5872 5872 5872 5871 5871 5871 5872 5873 5874 5876 5878 5879 5881 5883 5885 5887 5888 5889 5890 5891 5892 5892 5892 5892 5892 5893 5893 5893 5893 5893 5892 5892
5876 5876 5876 5876 5877 5877 5878 5878 5877 5877 5876 5876 5875 5874 5873 5873 5871 5870 5869 5869 5869 5869 5869 5869 5870 5871 5873 5875 5877 5879 5880 5882 5884 5886 5887 5888 5889 5890 5891 5891 5891 5891 5892 5892 5893 5893 5892 5892 5891
5872 5873 5874 5874 5874 5874 5875 5875 5875 5874 5873 5873 5872 5871 5870 5869 5868 5867 5866 5866 5866 5866 5867 5867 5868 5869 5871 5873 5874 5876 5877 5879 5881 5883 5884 5886 5887 5888 5889 5890 5890 5890 5891 5892 5892 5892 5892 5892 5891
5869 5870 5871 5872 5871 5872 5873 5872 5872 5871 5871 5870 5869 5869 5868 5866 5865 5863 5863 5863 5863 5863 5864 5865 5866 5867 5868 5870 5872 5873 5875 5876 5878 5880 5881 5883 5885 5886 5887 5888 5889 5889 5890 5890 5891 5892 5892 5891 5891
5866 5867 5868 5869 5868 5868 5869 5869 5869 5868 5868 5868 5867 5866 5865 5864 5862 5861 5860 5860 5859 5860 5861 5862 5862 5864 5865 5867 5869 5870 5871 5873 5875 5876 5878 5880 5882 5884 5885 5886 5887 5888 5888 5889 5890 5891 5891 5891 5891
5863 5863 5864 5864 5865 5865 5865 5866 5866 5865 5865 5865 5864 5864 5863 5862 5861 5859 5858 5858 5858 5857 5858 5858 5859 5860 5861 5863 5865 5867 5868 5870 5871 5873 5875 5877 5879 5881 5883 5884 5885 5886 5887 5888 5889 5890 5890 5891 5890
5858 5859 5860 5861 5862 5862 5862 5863 5864 5863 5863 5863 5862 5861 5860 5858 5857 5857 5856 5855 5855 5855 5854 5855 5856 5857 5857 5859 5861 5863 5864 5866 5868 5870 5872 5874 5876 5878 5880 5882 5883 5885 5886 5887 5888 5888 5889 5890 5890
5854 5855 5856 5858 5858 5858 5859 5860 5860 5860 5860 5860 5860 5859 5857 5855 5855 5854 5853 5853 5853 5852 5852 5852 5852 5853 5854 5856 5857 5858 5860 5862 5865 5867 5869 5871 5873 5875 5877 5879 5881 5883 5884 5885 5886 5887 5888 5888 5889
5850 5852 5853 5854 5855 5855 5856 5857 5857 5857 5857 5857 5857 5856 5854 5853 5852 5852 5851 5850 5850 5849 5849 5848 5849 5849 5850 5851 5852 5854 5856 5859 5862 5863 5865 5867 5870 5872 5874 5876 5878 5880 5881 5883 5884 5885 5886 5887 5888
5846 5848 5849 5850 5851 5852 5853 5854 5855 5855 5855 5854 5854 5853 5851 5850 5850 5849 5848 5847 5847 5846 5845 5845 5846 5846 5846 5847 5848 5850 5852 5855 5857 5860 5862 5864 5866 5869 5871 5873 5875 5877 5879 5880 5881 5883 5884 5885 5886
5843 5845 5846 5847 5848 5849 5850 5850 5853 5852 5852 5851 5851 5849 5848 5847 5846 5846 5845 5844 5844 5843 5842 5842 5842 5842 5843 5843 5845 5846 5849 5851 5853 5856 5859 5861 5863 5866 5868 5870 5872 5875 5876 5878 5879 5881 5882 5883 5884
5839 5841 5842 5843 5844 5846 5847 5847 5848 5848 5848 5848 5847 5846 5845 5843 5843 5842 5841 5841 5841 5840 5840 5839 5839 5839 5839 5840 5841 5843 5845 5847 5849 5852 5855 5857 5860 5863 5865 5867 5869 5871 5873 5875 5877 5878 5879 5881 5882
5835 5837 5839 5840 5841 5843 5843 5843 5844 5844 5844 5844 5844 5843 5842 5841 5840 5839 5839 5839 5838 5838 5837 5837 5836 5836 5836 5837 5838 5839 5841 5843 5845 5848 5851 5853 5856 5859 5861 5863 5865 5867 5870 5872 5873 5875 5876 5878 5879
5831 5833 5836 5837 5838 5839 5839 5839 5841 5840 5840 5840 5840 5840 5839 5839 5838 5837 5837 5837 5836 5835 5835 5835 5834 5833 5833 5834 5834 5835 5837 5839 5841 5844 5846 5849 5852 5855 5857 5859 5862 5864 5866 5868 5870 5872 5873 5874 5875
5827 5829 5832 5833 5834 5835 5835 5836 5837 5837 5836 5836 5836 5836 5837 5836 5835 5835 5834 5834 5834 5833 5833 5833 5832 5831 5831 5831 5832 5832 5833 5835 5837 5839 5842 5845 5848 5851 5853 5855 5858 5860 5862 5864 5866 5868 5869 5870 5871
5824 5826 5827 5829 5830 5831 5832 5832 5834 5834 5833 5833 5833 5833 5833 5833 5833 5832 5832 5831 5831 5831 5831 5830 5830 5829 5829 5829 5829 5830 5830 5832 5834 5836 5839 5841 5844 5847 5849 5851 5854 5856 5858 5860 5862 5864 5865 5866 5867
5820 5822 5823 5824 5826 5827 5828 5831 5830 5830 5830 5830 5830 5830 5830 5829 5829 5829 5829 5829 5829 5829 5829 5828 5828 5827 5827 5827 5827 5827 5828 5829 5831 5833 5835 5837 5840 5843 5845 5847 5849 5851 5854 5856 5858 5859 5861 5862 5863
5816 5817 5819 5821 5822 5823 5824 5828 5826 5826 5826 5826 5826 5826 5826 5826 5826 5826 5826 5826 5826 5826 5826 5825 5826 5826 5825 5825 5825 5825 5826 5827 5828 5830 5831 5834 5836 5839 5841 5843 5845 5847 5849 5851 5852 5854 5855 5856 5857